Погода в Мориоке

Япония     39°42′07″N   141°08′54″E
темп.,
°C
ветер,
м/с
пор.,
м/с
влажн.,
%
обл.,
%
осадки,
мм/ч
давл.,
гПа
погр.,
м
6 мая, чт
чт600:00+9ююз389754 0.1 1015293
03:00+8ююз37922 0.1 1016296
06:00+9ююз39902 0.0 1017702
09:00+14юз611521 0.0 10171614
12:00+17зюз59392 0.0 10171898
15:00+16зюз57380 0.0 10161534
18:00+11ю3560100 0.0 1018135
21:00+8юв226296 0.0 102017
7 мая, пт
пт700:00+7юв225894 0.0 102025
03:00+6вюв2158100 0.0 101914
06:00+9ююв2255100 0.0 101864
09:00+13ююз3855100 0.0 1016418
12:00+17ююз5957100 0.0 1013819
15:00+18ююз5956100 0.0 10091011
18:00+13ююз2676100 0.0 1008232
21:00+10ю2575100 0.0 1007132
8 мая, сб
сб800:00+9ююв2385100 0.0 100573
03:00+10ю258758 0.0 1004251
06:00+10ююз31195100 0.6 1006840
09:00+14зюз7137039 0.8 10051529
12:00+17зюз712440 0.1 10061657
15:00+16зюз69440 0.1 10061337
18:00+12ю366171 0.0 1007179
21:00+8юв2265100 0.0 100833
9 мая, вс
вс900:00+7ююв2268100 0.0 100740
03:00+7юв22830 0.0 100527
06:00+11ю13834 0.0 1004136
09:00+17юз7135811 0.1 10021870
12:00+13зюз613732 1.7 10031478
15:00+14зюз613404 1.8 10042047
18:00+9юз36590 0.0 1007271
21:00+6ю37680 0.0 1008216
10 мая, пн
пн1000:00+6ю4117322 0.0 1009498
03:00+7ююз4108717 0.1 1009662
06:00+8ююз4118218 0.0 10091109
09:00+14зюз7165519 0.3 10082093
12:00+15зюз81657100 0.5 10082074
15:00+15зюз71554100 0.8 10081888
18:00+10юз411620 0.0 10101047
21:00+7ю387366 0.0 1012293